This is the latest recevied weather packets stored in our database for station/object KB9ZI. If no packets are shown the sender has not sent any weather packets the latest 10 day(s).
| Time | Temp. | Humidity | Pressure | Rain* | Wind** | Luminosity | Snow |
|---|---|---|---|---|---|---|---|
| 1777859822 | 15° C | 50% | 1003.8 hPa | 0 mm | - | - | - |
| 1777859769 | 15° C | 50% | 1003.9 hPa | 0 mm | - | - | - |
| 1777859583 | 15° C | 45% | 1003.8 hPa | 0 mm | - | - | - |
| 1777859468 | 15.56° C | 45% | 1003.8 hPa | 0 mm | - | - | - |
| 1777859334 | 15.56° C | 45% | 1003.8 hPa | 0 mm | - | - | - |
| 1777859218 | 15.56° C | 43% | 1003.8 hPa | 0 mm | - | - | - |
| 1777859096 | 16.11° C | 43% | 1003.8 hPa | 0 mm | - | - | - |
| 1777858978 | 16.11° C | 43% | 1004 hPa | 0 mm | - | - | - |
| 1777858856 | - | - | 1004 hPa | 0 mm | - | - | - |
| 1777858797 | 16.67° C | 48% | 1004 hPa | 0 mm | - | - | - |
| 1777858600 | 16.67° C | 48% | 1004 hPa | 0 mm | - | - | - |
| 1777858476 | 16.67° C | 48% | 1004 hPa | 0 mm | - | - | - |
| 1777858357 | 16.67° C | 48% | 1004.2 hPa | 0 mm | - | - | - |
| 1777858236 | 16.67° C | 48% | 1004.2 hPa | 0 mm | - | - | - |
| 1777858116 | 17.22° C | 48% | 1004.2 hPa | 0 mm | - | - | - |
| 1777857997 | 17.22° C | 48% | 1004.2 hPa | 0 mm | - | - | - |
| 1777857879 | 17.78° C | 41% | 1004.3 hPa | 0 mm | - | - | - |
| 1777857815 | 17.78° C | 41% | 1004.3 hPa | 0 mm | - | - | - |
| 1777857637 | 17.78° C | 41% | 1004.3 hPa | 0 mm | - | - | - |
| 1777857517 | 18.33° C | 49% | 1004.3 hPa | 0 mm | - | - | - |
| 1777857393 | 18.33° C | 42% | 1004.2 hPa | 0 mm | - | - | - |
| 1777857274 | 18.89° C | 42% | 1004.2 hPa | 0 mm | - | - | - |
| 1777857155 | 18.89° C | 42% | 1004.2 hPa | 0 mm | - | - | - |
| 1777857033 | 18.89° C | 42% | 1004.2 hPa | 0 mm | - | - | - |
| 1777856974 | 18.89° C | 42% | 1004.2 hPa | 0 mm | - | - | - |
* Rain latest hour (hover to see other rain measurements)
** Current wind speed in m/s (hover to see current wind gust speed)